Regional Weather Roundup
Issued by NWS

Home | Current Version | Previous Version | Graphics & Text | Print | Product List | Glossary On
Versions: 1 2 3 4 5 6 7 8 9 10 11 12 13 14 15 16 17 18 19 20 21 22 23 24 25 26 27 28 29 30 31 32 33 34 35 36 37 38 39 40 41 42 43 44 45 46 47 48 49 50
000
ASUS45 KBOU 201607
RWRCO

WEATHER ROUNDUP FOR COLORADO
NATIONAL WEATHER SERVICE DENVER/BOULDER CO
900 AM MST SAT DEC 20 2014

NOTE: "FAIR" INDICATES FEW OR NO CLOUDS BELOW 12000 FEET WITH NO
SIGNIFICANT WEATHER AND/OR OBSTRUCTIONS TO VISIBILITY.

COZ001>005-013-030-031-201700-
...NORTHWEST COLORADO...

CITY           SKY/WX    TMP DP  RH WIND       PRES   REMARKS
CRAIG            N/A     24  20  84 SW3       30.14S
HAYDEN         CLOUDY    23  18  80 SE5       30.13R WCI  17
MEEKER         CLOUDY    24  19  81 CALM      30.14S
MOUNT WERNER   NOT AVBL
STEAMBOAT SPGS CLOUDY    19  17  91 CALM      30.13S
WALDEN         PTSUNNY   23  14  68 S12G18    30.06F WCI  12
$$

COZ006>008-011-201700-
...WEST CENTRAL VALLEYS...

CITY           SKY/WX    TMP DP  RH WIND       PRES   REMARKS
GRAND JUNCTION CLOUDY    30  24  78 S3        30.20R
MONTROSE       CLOUDY    29  18  63 CALM      30.20S
EAGLE          PTSUNNY   16  14  93 CALM      30.21S
RIFLE          CLOUDY    27  22  81 CALM      30.20S
DELTA          CLOUDY    32  24  71 CALM      30.21S
NUCLA          CLOUDY    28  23  80 W3        30.22R
$$

COZ017>023-064>068-201700-
...SOUTHWEST COLORADO...

CITY           SKY/WX    TMP DP  RH WIND       PRES   REMARKS
DURANGO        MOSUNNY   25  23  92 CALM      30.17F
CORTEZ         SUNNY     27  21  78 CALM      30.19R
PAGOSA SPRINGS MOSUNNY   20  19  93 CALM      30.16F
TELLURIDE      PTSUNNY   24  17  74 SE6       30.16S WCI  17
WOLF CREEK PAS PTSUNNY   19  10  68 MISG      30.15S
$$

COZ009-010-012-014-032>034-037-058>063-201700-
...CENTRAL COLORADO...

CITY           SKY/WX    TMP DP  RH WIND       PRES   REMARKS
ASPEN          CLOUDY    21  14  74 CALM      30.12F
BUENA VISTA    MOSUNNY   18  10  72 W5        30.12S WCI  11
COPPER MTN     LGT SNOW  21  14  73 SW3       30.10R
BERTHOUD PASS  CLOUDY    12   5  73 MISG      30.05R
COTTONWOOD PAS MOSUNNY   28  14  54 CALM      30.09S
GUNNISON       PTSUNNY    9   0  66 CALM      30.25R
KREMMLING      SUNNY     14  10  85 CALM      30.16F
LEADVILLE      MOSUNNY   22  14  71 N10       30.07F WCI  11
SALIDA         MOSUNNY   23  11  60 CALM      30.19S
SUNLIGHT       FLURRIES N/A N/A N/A CALM      30.13S
WILKERSON PASS CLOUDY    21  12  68 W6        30.11R WCI  14
$$

COZ069>075-201700-
...SAN LUIS VALLEY/SANGRE DE CRISTO MOUNTAINS...

CITY           SKY/WX    TMP DP  RH WIND       PRES   REMARKS
ALAMOSA        CLOUDY    16  11  80 NW3       30.17R
LA VETA PASS   PTSUNNY   19  10  68 S6        30.10S WCI  11
SAGUACHE       PTSUNNY   18  12  79 CALM      30.17S
$$

COZ035-036-038>040-201700-
...NORTHERN COLORADO FRONT RANGE...

CITY           SKY/WX    TMP DP  RH WIND       PRES   REMARKS
DENVER INTL AP CLOUDY    39  19  44 SW9       29.99R
DMNS CITY PARK   N/A     37  17  43 S1        30.00R
AURORA         PTSUNNY   37  18  47 S5        30.01R
FRONT RANGE AP NOT AVBL
ERIE MUNI ARPT   N/A     27  22  82 CALM      30.02R
BOULDER MUN AP CLOUDY    32  19  59 S3        30.00R
CENTENNIAL     CLOUDY    38  20  48 S3        30.00R
BROOMFIELD     PTSUNNY   32  19  59 VRB3      30.00R
FORT COLLINS   CLOUDY    27  21  80 NE5       30.03R WCI  21
LONGMONT       CLOUDY    32  22  67 CALM      30.02S
$$

COZ041-046-047-076>085-087-088-201700-
...PIKES PEAK/PALMER DIVIDE AND SOUTHERN FOOTHILLS...

CITY           SKY/WX    TMP DP  RH WIND       PRES   REMARKS
COLO. SPRINGS  CLOUDY    36  22  56 NE6       30.03S
A. F. ACADEMY  CLOUDY    33  18  52 N6        30.02S WCI  28
ELLICOTT       NOT AVBL
FALCON         CLOUDY    36  19  49 W3        30.04S
FORT CARSON    CLOUDY    34  19  55 N7        30.01F WCI  27
LIMON          MOSUNNY   27  22  81 CALM      30.02S
MONUMENT HILL  CLOUDY    37  18  44 SW6       30.01S
TRINIDAD       PTSUNNY   30  15  53 W10       30.06R WCI  21
$$

COZ042>045-048>051-090-091-201700-
...NORTHEAST COLORADO...

CITY           SKY/WX    TMP DP  RH WIND       PRES   REMARKS
GREELEY ARPT   CLOUDY    25  14  63 CALM      30.02R
AKRON          CLOUDY    30  21  69 W9        30.01R WCI  22
BURLINGTON     PTSUNNY   38  28  67 W7        30.02R
WRAY           MOSUNNY   26  20  81 W8        30.03R WCI  17
STERLING       CLOUDY    21  19  93 SW7       30.03R WCI  13
HOLYOKE        MOSUNNY   28  23  80 W8        30.02R WCI  20
FORT MORGAN    CLOUDY    21  17  84 NW3       30.02S
$$

COZ086-089-092>099-201700-
...SOUTHEAST COLORADO...

CITY           SKY/WX    TMP DP  RH WIND       PRES   REMARKS
PUEBLO         PTSUNNY   26  19  74 SW3       30.04S
LA JUNTA       SUNNY     28  22  78 W9        30.04S WCI  19
LAMAR          MOSUNNY   30  26  85 W7        30.04F WCI  23
SPRINGFIELD      N/A     44  26  49 NW3       30.04S
$$


USA.gov is the U.S. government's official web portal to all federal, state and local government web resources and services.